Tracking 27111 objects as of 28-Mar-2023
HD Live streaming from Space Station
objects crossing your sky now

STARLINK-5283

Track STARLINK-5283 now!
10-day predictions
STARLINK-5283 is classified as:


NORAD ID: 55396
Int'l Code: 2023-014F
Perigee: 364.3 km
Apogee: 368.2 km
Inclination: 70.0 °
Period: 91.7 minutes
Semi major axis: 6737 km
RCS: Unknown
Launch date: January 31, 2023
Source: United States (US)
Launch site: AIR FORCE WESTERN TEST RANGE (AFWTR)
Your satellite tracking list
Your tracking list is empty




NASA's NSSDC Master Catalog

Two Line Element Set (TLE):
1 55396U 23014F   23086.92343732 -.00000629  00000-0 -34687-5 0  9992
2 55396  70.0002 294.3864 0002929 259.7297 100.3569 15.69923717  9810
Source of the keplerian elements: AFSPC